User: anonymous   Login
Location: Unspecified
(0.0000°N, 0.0000°E)
Time: 06:16:14
(UTC+02:00)
Language:

Cosmos 773 Rocket - Orbit

View from above orbital plane
View from above orbital plane
View from above satellite
View from above satellite

Ground track
Ground track

The orbit data is extracted from the following two-line orbital elements,

1 08344U 75094B   14297.81675700  .00000485  00000-0  16568-3 0  6017
2 08344 074.0572 106.0463 0022897 251.1364 211.3850 14.38812876 46699
Epoch (UTC): 24 October 2014 19:36:07
Eccentricity: 0.0022897
inclination: 74.0572°
perigee height: 746 km
apogee height: 779 km
right ascension of ascending node: 106.0463°
argument of perigee: 251.1364°
revolutions per day: 14.38812876
mean anomaly at epoch: 211.3850°
orbit number at epoch: 4669

The dashed part of the orbit path shows where the satellite is in the earth's shadow,  

DLR